Regional Weather Roundup
Issued by NWS

Home | Current Version | Previous Version | Text Only | Print | Product List | Glossary Off
Versions: 1 2 3 4 5 6 7 8 9 10 11 12 13 14 15 16 17 18 19 20 21 22 23 24 25 26 27 28 29 30 31 32 33 34 35 36 37 38 39 40 41 42 43 44 45 46 47 48 49 50

000
ASUS44 KMEG 242110
RWRTN
TENNESSEE HOURLY STATE WEATHER ROUNDUP
NATIONAL WEATHER SERVICE MEMPHIS TN
400 PM CDT FRI OCT 24 2014

TNZ002-004-019-021-049-052-054-088>092-242200-
WEST TENNESSEE

CITY           SKY/WX    TMP DP  RH WIND       PRES   REMARKS
MEMPHIS INTL   MOSUNNY   75  52  44 CALM      30.08F
NWS MEMPHIS      N/A     73 N/A N/A MISG        N/A
JACKSON        MOSUNNY   72  52  49 W5        30.07F
DYERSBURG      SUNNY     72  48  43 W6        30.08F
PARIS          SUNNY     66  52  59 W6        30.07F
HUNTINGDON     MOSUNNY   67  50  54 W3        30.07S
LEXINGTON      MOSUNNY   70  52  52 N7        30.06S
SAVANNAH       SUNNY     72  46  40 NE5       30.08S
$$

TNZ008-025-027-028-033-062-065-066-242200-
NORTH MIDDLE TENNESSEE

CITY           SKY/WX    TMP DP  RH WIND       PRES   REMARKS
NASHVILLE      MOSUNNY   72  43  35 VRB3      30.06F
CLARKSVILLE    MOSUNNY   68  45  43 SW3       30.06F
SMYRNA         SUNNY     70  47  43 N6        30.07F
COOKEVILLE     SUNNY     70  39  32 N5        30.06S
CROSSVILLE     SUNNY     68  37  32 N7        30.06S
$$

TNZ061-075-076-078-094-096-097-242200-
SOUTH MIDDLE TENNESSEE

CITY           SKY/WX    TMP DP  RH WIND       PRES   REMARKS
FAYETTEVILLE   SUNNY     66  39  37 N8        30.06S
TULLAHOMA      SUNNY     66  39  37 NW7       30.07S
WINCHESTER     SUNNY     68  43  40 VRB5      30.06S
MCMINNVILLE    SUNNY     68  43  40 CALM      30.06S
COLUMBIA         N/A     70  43  37 CALM      30.06S
SHELBYVILLE    SUNNY     70  39  32 N3        30.07F
$$

TNZ017-018-042-046-047-242200-
NORTHEAST TENNESSEE

CITY           SKY/WX    TMP DP  RH WIND       PRES   REMARKS
TRI CITIES     MOSUNNY   65  38  36 CALM      30.04F
ELIZABETHTON   CLEAR     63  39  42 W6        30.04S
$$

TNZ012-013-036-069-073-074-242200-
CENTRAL EAST TENNESSEE

CITY           SKY/WX    TMP DP  RH WIND       PRES   REMARKS
KNOXVILLE      MOSUNNY   67  40  37 CALM      30.03F
OAK RIDGE      SUNNY     69  45  41 CALM      30.05S
GATLINBURG     CLEAR     64  36  34 CALM      30.02F
MORRISTOWN     CLEAR     63  39  42 N3        30.05S
$$

TNZ083-085-099-242200-
SOUTHEAST TENNESSEE

CITY           SKY/WX    TMP DP  RH WIND       PRES   REMARKS
CHATTANOOGA    SUNNY     72  43  35 CALM      30.03F
$$

SKY/WX REPORTED AS FAIR MEANS FEW OR NO CLOUDS BELOW
12 THOUSAND FEET.




USA.gov is the U.S. government's official web portal to all federal, state and local government web resources and services.